Weather in Yulin

China     22°37′22″N   110°09′13″E
temp.,
°C
wind,
m/s
gust,
m/s
humid.,
%
clouds,
%
prec.,
mm/h
press.,
hPa
HPBL,
m
17 may, mon
mon1723:00+26sse49847 0.0 1009410
02:00+26se4109155 0.0 1007472
05:00+26se379299 0.0 1007359
08:00+28sse478394 0.3 1009715
11:00+31sse567045 4.1 10101133
14:00+31s4568100 11.0 10081112
17:00+31sse4570100 3.3 10061101
20:00+26s249097 7.7 100777
18 may, tue
tue1823:00+26se3990100 1.6 1009313
02:00+26se51089100 7.6 1008353
05:00+24ene2495100 8.1 1008120
08:00+26e2686100 8.6 1010493
11:00+29s357971 3.2 1010810
14:00+30s457294 7.9 10071072
17:00+30s347586 5.1 1006897
20:00+26se248999 9.3 100778
19 may, wed
wed1923:00+25se4108999 0.1 1008360
02:00+25se4109179 1.4 1008393
05:00+25se4119216 3.3 1007421
08:00+27sse5108824 4.4 1008820
11:00+29sse8107826 4.1 10081087
14:00+30s81076100 8.9 10051200
17:00+28sse61082100 4.0 1004546
20:00+26sse51286100 5.7 1005385
20 may, thu
thu2023:00+26sse6139199 0.0 1006612
02:00+26sse6139390 0.0 1005606
05:00+26sse4993100 0.1 1005409
08:00+27sse5108887 0.2 1006758
11:00+29s467799 0.1 1006843
14:00+31s586797 0.2 10041443
17:00+32ssw486799 0.4 10021438
20:00+27se378687 1.0 1004205
21 may, fri
fri2123:00+26se4108979 0.1 1006356
02:00+25se269164 0.1 1005262
05:00+25se259279 0.4 1005184
08:00+28se368492 4.9 1006360
11:00+29s368084 7.3 1006577
14:00+24wnw2499100 50.6 1003223
17:00+25ne2294100 7.0 1003202
20:00+25e1195100 7.0 100423